Cloud_Cover
0 0 0 0 3 5 5 5 5 89 66 98 100 100 100 100 100 100 82 100 30 7 8 25 7 0 13 5 0 0 0 0 2 12 7 35 5 4 2 0 6 5 28 0
0 0 0 0 0 5 98 50 64 58 53 100 100 100 100 99 100 100 100 90 78 5 7 47 93 43 5 3 0 0 0 0 0 82 18 98 46 52 5 5 4 0 15 92
0 0 0 0 0 5 61 13 92 14 14 100 100 100 100 100 100 100 100 57 73 17 19 78 11 68 5 1 0 0 0 0 0 0 13 12 98 29 22 5 32 0 1 8
0 0 0 0 0 3 5 44 100 73 18 100 97 100 100 100 100 100 100 90 78 66 5 5 3 5 5 0 0 0 0 23 5 54 5 10 90 9 5 5 5 5 5 6
0 0 0 0 0 0 6 100 100 98 99 34 100 100 100 100 100 100 100 100 98 92 31 5 5 5 12 32 0 2 5 64 100 5 5 4 5 80 5 29 16 22 50 74
0 0 0 0 0 0 89 72 80 60 29 100 100 100 100 87 100 100 100 86 26 100 50 78 99 71 75 62 1 4 6 49 66 98 16 4 54 21 26 98 22 3 82 77
0 0 0 0 0 0 13 22 28 5 4 100 100 100 100 70 17 96 100 100 98 99 92 100 97 100 80 100 17 21 51 5 6 100 19 3 35 74 11 40 99 66 19 56
0 0 0 0 0 0 0 25 5 5 5 2 10 100 97 35 64 100 100 100 81 100 100 100 100 65 99 98 96 77 48 89 6 100 32 66 80 100 100 100 100 100 100 94
0 0 0 0 0 0 0 0 4 5 5 30 20 76 81 100 100 91 75 100 99 100 94 100 100 100 100 48 97 35 38 56 71 100 100 100 18 11 100 100 100 100 100 100
1 0 0 0 0 0 0 0 0 5 5 5 3 0 20 58 77 100 100 100 100 100 100 96 100 100 92 97 94 79 98 87 63 100 100 100 100 100 100 100 100 100 100 100
9 3 0 0 0 0 0 0 0 0 0 5 2 6 99 100 97 97 100 100 100 100 100 100 100 100 100 100 81 100 100 100 82 62 100 100 100 100 100 100 100 100 100 100
93 14 4 0 0 0 0 0 5 0 2 0 5 4 100 100 100 100 100 100 100 100 100 100 100 100 100 100 100 100 100 100 100 99 66 100 100 100 78 100 100 100 91 100
100 100 81 15 1 0 0 0 2 5 1 0 4 7 100 99 100 100 100 100 100 100 100 100 100 100 100 100 100 100 100 99 100 100 100 93 88 88 99 55 96 100 100 74
100 100 100 100 52 2 0 0 0 3 34 5 16 82 100 100 100 100 100 100 100 100 100 100 100 100 100 100 100 100 53 100 100 100 97 88 100 100 100 100 100 100 100 100
100 100 100 100 100 100 53 4 0 0 11 17 73 74 100 94 100 99 100 100 100 100 100 100 100 100 100 100 100 100 100 100 100 100 100 100 100 100 100 94 92 100 100 100
100 100 100 100 100 93 100 98 5 5 52 5 62 100 74 92 63 32 100 100 100 100 100 100 100 100 100 100 100 100 100 100 100 100 100 100 100 100 100 100 100 100 88 36
100 100 100 100 91 100 100 100 74 5 0 5 78 71 100 96 16 7 100 98 100 100 100 100 100 100 100 100 100 100 100 100 100 100 100 100 100 100 100 100 95 100 100 65
100 100 100 100 100 100 100 100 100 50 3 0 1 94 75 54 96 100 83 71 21 99 100 100 100 100 100 100 100 100 100 100 100 100 100 100 100 100 100 100 100 100 100 100
100 100 100 100 100 100 99 100 100 100 78 12 14 81 100 70 54 100 57 89 100 92 100 100 100 100 96 100 100 100 100 100 100 100 100 100 100 100 100 100 100 100 100 100
100 100 93 87 90 96 100 100 100 100 94 100 3 1 0 93 43 37 100 66 31 100 100 100 100 96 89 98 13 100 66 100 100 100 100 100 100 100 100 100 100 100 100 100
98 100 83 40 81 7 13 98 100 100 100 80 97 10 4 0 0 4 46 83 28 73 100 56 84 100 45 98 72 98 85 100 100 100 100 100 100 100 100 100 100 100 100 100
5 98 100 96 72 34 100 100 99 100 100 97 94 98 100 43 3 5 8 89 96 10 25 97 16 9 100 81 69 61 58 100 100 100 100 97 84 100 100 100 100 100 100 100
10 8 86 100 100 84 92 100 100 100 100 86 84 99 100 98 7 36 60 54 99 100 99 87 66 24 9 98 77 98 86 42 100 100 54 65 56 87 100 100 100 100 100 100
5 5 50 28 98 100 100 96 100 100 100 26 95 100 100 100 100 100 11 95 97 16 14 27 84 100 100 99 100 70 12 86 6 98 100 68 6 97 100 100 100 100 100 100
1 5 5 5 5 47 95 100 100 100 100 43 15 93 100 100 100 100 100 75 87 77 85 5 2 0 0 0 51 71 86 29 40 5 21 15 5 69 62 58 100 100 100 100
3 3 0 0 0 0 5 5 20 9 56 100 99 100 100 100 100 100 94 100 91 30 11 5 4 0 0 0 0 0 0 37 100 99 60 33 3 0 1 1 71 100 100 100